Regional Weather Roundup
Issued by NWS

Home | Current Version | Previous Version | Text Only | Print | Product List | Glossary On
Versions: 1 2 3 4 5 6 7 8 9 10 11 12 13 14 15 16 17 18 19 20 21 22 23 24 25 26 27 28 29 30 31 32 33 34 35 36 37 38 39 40 41 42 43 44 45 46 47 48 49 50
381
ASUS44 KOUN 182010
RWROK

WEATHER ROUNDUP FOR OKLAHOMA
NATIONAL WEATHER SERVICE NORMAN OK
200 PM CST WED JAN 18 2017

NOTE: "FAIR" INDICATES FEW OR NO CLOUDS BELOW 12,000 FEET WITH NO
      SIGNIFICANT WEATHER AND/OR OBSTRUCTIONS TO VISIBILITY.

OKZ001>007-009>012-014-015-017-182100-
NORTHWEST OKLAHOMA AND THE PANHANDLE

CITY           SKY/WX    TMP DP  RH WIND       PRES   REMARKS
GAGE           SUNNY     58  43  57 S17       29.95F
GUYMON         MOSUNNY   55  42  61 S16G24    29.89F
ENID/WOODRING  PTSUNNY   55  41  58 S15       30.01F
$$

OKZ016-021>023-033>039-044-045-182100-
SOUTHWEST OKLAHOMA

CITY           SKY/WX    TMP DP  RH WIND       PRES   REMARKS
LAWTON/REGL    CLOUDY    49  46  90 S7        30.06F
LAWTON/FT SILL CLOUDY    48  48 100 S5        30.04F
FREDERICK      CLOUDY    49  47  93 SE9       30.02F
CLINTON        CLOUDY    49  43  80 S13       30.02F
HOBART         CLOUDY    48  46  93 S12       30.03F FOG
ALTUS AFB      CLOUDY    47  45  90 S10       30.04F
$$

OKZ018>020-024>031-182100-
CENTRAL OKLAHOMA

CITY           SKY/WX    TMP DP  RH WIND       PRES   REMARKS
OKLAHOMA CITY  CLOUDY    54  41  61 S7        30.03F
OKC/WILEY POST CLOUDY    54  42  64 SW8       30.03F
OKC/TINKER AFB CLOUDY    54  40  60 SW5       30.02F
STILLWATER     CLOUDY    54  37  52 S7        30.03F
GUTHRIE        CLOUDY    54  41  61 S7        30.03F
$$

OKZ008-013-054>072-182100-
NORTHEAST OKLAHOMA

CITY           SKY/WX    TMP DP  RH WIND       PRES   REMARKS
TULSA          CLOUDY    52  41  66 SE6       30.05F
TULSA/JONES    CLOUDY    53  40  61 VRB6      30.04F
PONCA CITY     CLOUDY    54  36  50 SE10      30.03F
BARTLESVILLE   CLOUDY    50  38  63 VRB3      30.07F
MUSKOGEE       CLOUDY    48  43  82 SE6       30.07F
$$

OKZ032-040>043-046>053-073>077-182100-
SOUTH CENTRAL/SOUTHEAST OKLAHOMA

CITY           SKY/WX    TMP DP  RH WIND       PRES   REMARKS
ARDMORE/DWNTWN CLOUDY    52  45  76 CALM      30.05F
MCALESTER      CLOUDY    50  44  80 NE5       30.04F
$$





USA.gov is the U.S. government's official web portal to all federal, state and local government web resources and services.